DRAGON CRS-21 (47233 NORAD) Tracking and Keplerian Element Data

This shows tracking and keplerian element data for the satellite.

Feedback or suggestion? Click here.




ElementValue
Catalog47233
NameDRAGON CRS-21
Epoch Orbit591
Epoch Day13.7353087
Epoch Year2021
RAAN26.3562
Inclination51.644
Eccentricity0.0151397
Argument of Perigee61.4578
Mean Anonmoly300.1249
Mean Motion15.89925614
Decay Rate0.00129274
L11 47233U 20093A 21013.73530870 .00129274 11183-4 14667-3 0 9993
L22 47233 51.6440 26.3562 0151397 61.4578 300.1249 15.89925614 5916

Live tracking and technical data element details for DRAGON CRS-21 (NORAD 47233). DRAGON CRS-21 can be tracked NOW for your location showing map with azimuth and elevation plus other details from your city location.

Track the satellite on the map from your city or location and see movement details for azimuth, elevation, latitude, longitude, range, height, and movement on the map or in text.







IsCatalogInMostPopularTable: catalog: 47233, numindb: 46
Update: records affected: 1



GetName: 47233 DRAGON CRS-21

Hit Count: updated at: Fri, 05 Mar 2021 07:00:15 GMT